Regional Weather Roundup
Issued by NWS

Home | Current Version | Previous Version | Graphics & Text | Print | Product List | Glossary On
Versions: 1 2 3 4 5 6 7 8 9 10 11 12 13 14 15 16 17 18 19 20 21 22 23 24 25 26 27 28 29 30 31 32 33 34 35 36 37 38 39 40 41 42 43 44 45 46 47 48 49 50
000
ASUS43 KMPX 180610
RWRMN
WEATHER ROUNDUP FOR MINNESOTA
NATIONAL WEATHER SERVICE TWIN CITIES/CHANHASSEN MN
1200 AM CST SAT NOV 18 2017


NOTE: "FAIR" INDICATES FEW OR NO CLOUDS BELOW 12,000 FEET WITH NO
SIGNIFICANT WEATHER AND/OR OBSTRUCTIONS TO VISIBILITY. N/A MEANS
CURRENT SKY AND/OR WEATHER CONDITIONS ARE NOT AVAILABLE.

MNZ060>063-068>070-180700-
   Twin Cities Metro

CITY           SKY/WX    TMP DP  RH WIND       PRES   REMARKS
TWIN CITIES    CLOUDY    36  35  96 N8        29.69R
6HR MIN TEMP:  36; 6HR MAX TEMP:  39;

ST PAUL        CLOUDY    36  35  96 NW9       29.70R
CRYSTAL        CLOUDY    36  31  82 NW5       29.68R
BLAINE         PTCLDY    36  36 100 NW3       29.68R FOG
LAKEVILLE      CLOUDY    36  36 100 N9        29.67R
EDEN PRAIRIE   CLOUDY    37  34  89 N8        29.67R
6HR MIN TEMP:  36; 6HR MAX TEMP:  39;

SOUTH ST PAUL  CLOUDY    37  37  99 NW10      29.69R
LAKE ELMO      CLOUDY    36  36 100 N8        29.68R FOG
$$
MNZ001>005-007-008-013>017-022>024-027-028-180700-
   Northwest Minnesota

CITY           SKY/WX    TMP DP  RH WIND       PRES   REMARKS
BEMIDJI        CLOUDY    20  16  84 NW7       29.75S WCI  11
HALLOCK        CLOUDY    10   7  85 W3        29.83R
ROSEAU         CLOUDY    16  10  79 W6        29.79R WCI   7
WARROAD        CLOUDY    14  10  85 W6        29.77S WCI   5
THIEF RVR FALL CLOUDY    16  14  92 NW7       29.81R WCI   6
CROOKSTON      CLOUDY    18  16  93 N7        29.83R WCI   8
FOSSTON        CLOUDY    18  14  86 NW3       29.78S
DETROIT LAKES  CLOUDY    21  19  93 N9        29.77R WCI  11
MOORHEAD       PTCLDY    21  16  79 CALM      29.81R
PARK RAPIDS    CLOUDY    26  19  74 N8        29.71F WCI  18
MAHNOMEN       FAIR      20  17  88 N6        29.77F WCI  12
$$
MNZ006-009>011-018-025>026-180700-
   North Central Minnesota

CITY           SKY/WX    TMP DP  RH WIND       PRES   REMARKS
BAUDETTE       PTCLDY    17  13  84 W8        29.75R WCI   7
FLAG ISLAND    CLEAR     14  10  85 W7        29.76R WCI   4
INTL FALLS     CLOUDY    21  16  81 NW8       29.72R HAZE    WCI  11
6HR MIN TEMP:  21; 6HR MAX TEMP:  30;

WASKISH        CLOUDY    19  16  86 NW5       29.76S WCI  13
BIG FORK       CLOUDY    25  18  74 NW3       29.73R
LONGVILLE      CLOUDY    27  21  80 NW5       29.72R WCI  21
GRAND RAPIDS   CLOUDY    26  24  92 NW10      29.72R WCI  16
CRANE LAKE     CLOUDY    27  25  93 CALM      29.72R
ORR            PTCLDY    21  18  86 NW5       29.68R WCI  15
COOK           CLOUDY    25  21  86 NW3       29.70R
WALKER         FAIR      23  17  78 NW8       29.73F WCI  14
$$
MNZ012-019>021-037-180700-
   Northeast Minnesota

CITY           SKY/WX    TMP DP  RH WIND       PRES   REMARKS
DULUTH         CLOUDY    31  30  96 NW9       29.65R WCI  23
6HR MIN TEMP:  31; 6HR MAX TEMP:  32;

ELY            CLOUDY    30  28  93 NW6       29.66R WCI  24
HIBBING        CLOUDY    27  24  89 N10       29.67S WCI  17
EVELETH        CLOUDY    30  25  80 VRB6      29.67S WCI  24
DULUTH HARBOR  CLOUDY    34  32  93 CALM      29.68R FOG
TWO HARBORS    CLOUDY    34  28  80 CALM      29.63R
SILVER BAY     CLOUDY    34  30  86 CALM      29.63S
GRAND MARAIS     N/A     33  32  96 CALM      29.65S
G MARAIS ARPRT CLOUDY    28  25  86 NW7       29.61R WCI  21
$$
MNZ029>031-032-039>041-046>048-054>057-064-180700-
   West Central Minnesota

CITY           SKY/WX    TMP DP  RH WIND       PRES   REMARKS
FERGUS FALLS   MOCLDY    23  18  80 NW8       29.80R WCI  14
WHEATON        CLOUDY    25  18  74 NW10      29.82R WCI  15
MORRIS         CLOUDY    27  21  80 NW16      29.75R WCI  14
ALEXANDRIA     CLOUDY    29  23  78 NW9       29.73S WCI  20
ELBOW LAKE     FAIR      24  20  84 W12       29.76R WCI  13
WADENA         CLOUDY    27  21  80 NW6       29.72F WCI  20
GLENWOOD       CLOUDY    30  27  86 NW10      29.72S WCI  21
APPLETON       CLOUDY    30  23  74 NW12      29.75R WCI  21
BENSON         CLOUDY    28  23  80 N12       29.76R WCI  18
ORTONVILLE     CLOUDY    28  21  74 MISG      29.76R
MADISON        CLOUDY    34  27  75 NW12      29.75S WCI  25
WILLMAR        FAIR      34  30  86 NW8       29.72R WCI  27
$$
MNZ033>034-036-042>043-049>051-058-059-180700-
   Central Minnesota

CITY           SKY/WX    TMP DP  RH WIND       PRES   REMARKS
ST CLOUD       CLOUDY    33  32  96 N5        29.68S WCI  29
6HR MIN TEMP:  32; 6HR MAX TEMP:  35;

SAUK CENTRE    CLOUDY    31  28  87 NW7       29.71S WCI  24
PAYNESVILLE    CLOUDY    33  32  98 W6        29.73R WCI  27
AITKIN         CLOUDY    28  25  86 NW3       29.69S
PINE RIVER     CLOUDY    27  21  80 NW7       29.75S WCI  19
BRAINERD       CLOUDY    32  28  85 N7        29.71R WCI  26
STAPLES        CLOUDY    28  25  86 NW9       29.71F WCI  20
LONG PRAIRIE   FAIR      30  28  93 NW8       29.70F WCI  23
LITTLE FALLS   CLOUDY    32  30  93 CALM      29.70F
LITCHFIELD     CLOUDY    36  36 100 W7        29.72R
BUFFALO        CLOUDY    34  32  93 CALM      29.69S FOG
MAPLE LAKE     CLOUDY    34  33  99 NW3       29.69S FOG
HUTCHINSON     CLOUDY    34  33  96 NW6       29.71F FOG     WCI  29
$$
MNZ037-044-045-052-053-180700-
   East Central Minnesota

CITY           SKY/WX    TMP DP  RH WIND       PRES   REMARKS
PRINCETON      FOG       32  30  93 CALM      29.70R VSB 1/2
MORA             N/A     32  32 100 CALM      29.70R FOG
CAMBRIDGE      FOG       34  34 100 CALM      29.69R VSB 3/4
RUSH CITY      MOCLDY    32  31  97 NW5       29.69R FOG     WCI  27
MOOSE LAKE     CLOUDY    32  32 100 NW3       29.67R FOG
HINCKLEY       FAIR      32  32 100 W3        29.69R FOG
CLOQUET        CLOUDY    32  30  93 NW8       29.66R WCI  25
MCGREGOR       CLOUDY    32  30  93 NW6       29.70R WCI  26
$$
MNZ071>073-080-081-089-090-097-098-180700-
   Southwest Minnesota

CITY           SKY/WX    TMP DP  RH WIND       PRES   REMARKS
MONTEVIDEO     CLOUDY    30  27  86 N10       29.74R WCI  21
GRANITE FALLS  CLOUDY    33  28  82 NW9       29.74S WCI  25
CANBY          MOCLDY    32  27  83 W8        29.77R WCI  25
MARSHALL       CLOUDY    31  27  85 N12       29.74R WCI  22
REDWOOD FALLS  CLOUDY    34  29  82 NW10      29.71S WCI  26
OLIVIA         CLOUDY    34  32  93 NW10      29.71R WCI  26
PIPESTONE      CLOUDY    32  27  80 NE3       29.69F
WINDOM           N/A     34  23  64 NW15      29.71R WCI  24
WORTHINGTON    CLOUDY    34  31  88 N15       29.71R WCI  24
JACKSON        CLOUDY    34  32  93 NW13G20   29.70R WCI  25
SLAYTON        CLOUDY    32  29  88 N12       29.72R WCI  23
$$
MNZ065>067-074>077-082>085-091>093-180700-
   South Central Minnesota

CITY           SKY/WX    TMP DP  RH WIND       PRES   REMARKS
MANKATO        CLOUDY    36  34  92 NW8       29.68R FOG
NEW ULM        MOCLDY    36  32  87 CALM      29.69S
ST JAMES       CLOUDY    36  34  93 NW12      29.70R
FAIRMONT       CLOUDY    36  34  92 N9        29.68R
GLENCOE        CLOUDY    36  36 100 NW6       29.68F FOG
FARIBAULT      CLOUDY    36  36 100 N6        29.65S FOG
OWATONNA       CLOUDY    37  36  93 N5        29.64S FOG
WASECA         CLOUDY    36  36 100 N8        29.67R FOG
ALBERT LEA     CLOUDY    36  36 100 N10       29.65R FOG
$$
MNZ078>079-086>088-094>096-180700-
   Southeast Minnesota

CITY           SKY/WX    TMP DP  RH WIND       PRES   REMARKS
ROCHESTER      CLOUDY    36  36 100 N17       29.61F FOG
6HR MIN TEMP:  36; 6HR MAX TEMP:  37; 6HR PCP: TRACE;

RED WING       CLOUDY    37  34  87 CALM      29.65R
STANTON        CLOUDY    37  36  93 N6        29.65R FOG
DODGE CENTER   CLOUDY    36  36 100 N13       29.62S FOG
WINONA         CLOUDY    36  36 100 N6        29.63S
AUSTIN         CLOUDY    36  36 100 N6        29.63R FOG
PRESTON        CLOUDY    35  34  96 N7        29.61F FOG     WCI  29
$$
ABBREVIATIONS USED IN REMARKS
   TC - TEMPERATURES IN CELSIUS
  WCI - WIND CHILL INDEX
   HX - HEAT INDEX
  VSB - VISIBILITY
$$



USA.gov is the U.S. government's official web portal to all federal, state and local government web resources and services.